FW9359 Weather Reports


time (UTC)temp
C
wind
direction
speed
KPH
gust
KPH
rain 1hr
cm
rain 24hr
cm
rain mn
cm
humidity
%
barometer
mb
20260906112853 21 190 0.0 1.6 0.00 0.00 0.00 90 1023.1
20260906112344 21 100 0.0 1.6 0.00 0.00 0.00 90 1023.2
20260906111844 21 100 0.0 0.0 0.00 0.00 0.00 90 1023.0
20260906111343 21 100 1.6 1.6 0.00 0.00 0.00 90 1022.8
20260906110838 21 0 4.8 8.0 0.00 0.00 0.00 90 1022.9
20260906110334 21 356 0.0 0.0 0.00 0.00 0.00 90 1023.1
20260906105833 21 356 3.2 4.8 0.00 0.00 0.00 89 1023.0
20260906105329 21 68 0.0 0.0 0.00 0.00 0.00 89 1022.7
20260906104825 21 68 0.0 0.0 0.00 0.00 0.00 89 1022.7
20260906104323 21 86 1.6 1.6 0.00 0.00 0.00 90 1022.9
20260906103822 21 86 0.0 0.0 0.00 0.00 0.00 89 1022.6
20260906103320 21 86 0.0 0.0 0.00 0.00 0.00 89 1022.4
20260906102817 21 86 1.6 1.6 0.00 0.00 0.00 89 1022.6
20260906102315 21 86 0.0 0.0 0.00 0.00 0.00 89 1022.5
20260906101811 21 86 0.0 0.0 0.00 0.00 0.00 89 1022.2
20260906101306 21 86 0.0 0.0 0.00 0.00 0.00 89 1022.0
20260906100802 21 86 0.0 0.0 0.00 0.00 0.00 89 1022.2
20260906100301 21 86 0.0 0.0 0.00 0.00 0.00 89 1022.4
20260906095756 21 86 0.0 1.6 0.00 0.00 0.00 88 1022.5
20260906095251 21 86 0.0 0.0 0.00 0.00 0.00 88 1022.1
20260906094750 21 86 0.0 0.0 0.00 0.00 0.00 88 1022.2
20260906094245 21 86 0.0 0.0 0.00 0.00 0.00 88 1022.1
20260906093742 22 86 0.0 0.0 0.00 0.00 0.00 87 1022.4
20260906093237 22 86 0.0 0.0 0.00 0.00 0.00 87 1022.2
20260906092732 22 86 0.0 1.6 0.00 0.00 0.00 87 1022.2
20260906092232 22 86 0.0 0.0 0.00 0.00 0.00 87 1022.2
20260906091728 22 86 0.0 0.0 0.00 0.00 0.00 87 1022.4
20260906091224 22 86 0.0 0.0 0.00 0.00 0.00 87 1022.2
20260906090720 22 86 0.0 0.0 0.00 0.00 0.00 87 1021.9
20260906090219 22 86 0.0 0.0 0.00 0.00 0.00 87 1022.2
20260906085719 22 86 0.0 0.0 0.00 0.00 0.00 87 1022.2
20260906085217 22 86 0.0 0.0 0.00 0.00 0.00 87 1022.4
20260906084712 22 86 0.0 0.0 0.00 0.00 0.00 88 1022.2
20260906084207 22 86 0.0 0.0 0.00 0.00 0.00 88 1022.1
20260906083702 22 86 0.0 0.0 0.00 0.00 0.00 88 1022.4
20260906083157 22 86 0.0 0.0 0.00 0.00 0.00 88 1022.1
20260906082652 22 89 0.0 0.0 0.00 0.00 0.00 88 1021.9
20260906082147 22 89 0.0 0.0 0.00 0.00 0.00 88 1021.9
20260906081643 22 89 0.0 0.0 0.00 0.00 0.00 88 1022.1
20260906081132 22 89 0.0 0.0 0.00 0.00 0.00 88 1022.0
20260906080629 22 89 0.0 0.0 0.00 0.00 0.00 88 1022.0
20260906080125 22 89 0.0 1.6 0.00 0.00 0.00 88 1022.1
20260906075618 22 89 0.0 0.0 0.00 0.00 0.00 88 1022.1
20260906075113 22 89 0.0 0.0 0.00 0.00 0.00 87 1022.1
20260906074609 22 89 0.0 0.0 0.00 0.00 0.00 87 1021.9
20260906074107 22 89 1.6 1.6 0.00 0.00 0.00 87 1022.0
20260906073602 22 89 0.0 0.0 0.00 0.00 0.00 88 1022.0
20260906073058 22 89 0.0 0.0 0.00 0.00 0.00 88 1022.2
20260906072552 22 89 0.0 1.6 0.00 0.00 0.00 88 1022.1
20260906072049 22 89 0.0 0.0 0.00 0.00 0.00 88 1022.2
20260906071545 22 89 0.0 0.0 0.00 0.00 0.00 88 1022.2
20260906071039 22 89 0.0 1.6 0.00 0.00 0.00 88 1022.5
20260906070536 22 140 1.6 3.2 0.00 0.00 0.00 89 1022.5
20260906070032 22 213 0.0 0.0 0.00 0.00 0.00 89 1021.9
20260906065531 22 11 0.0 0.0 0.00 0.00 0.00 88 1022.1
20260906065027 22 12 3.2 3.2 0.00 0.00 0.00 88 1022.1
20260906064522 22 12 0.0 0.0 0.00 0.00 0.00 88 1022.0
20260906064017 22 18 0.0 1.6 0.00 0.00 0.00 87 1022.2
20260906063512 22 18 0.0 0.0 0.00 0.00 0.00 87 1022.2
20260906063008 22 18 1.6 1.6 0.00 0.00 0.00 87 1022.2
20260906062503 22 14 6.4 8.0 0.00 0.00 0.00 87 1022.4
20260906061957 22 31 3.2 3.2 0.00 0.00 0.00 87 1022.2
20260906061453 22 33 4.8 8.0 0.00 0.00 0.00 87 1022.5
20260906060947 22 17 1.6 1.6 0.00 0.00 0.00 88 1022.4
20260906060444 22 8 3.2 4.8 0.00 0.00 0.00 88 1021.9
20260906055941 22 26 0.0 0.0 0.00 0.00 0.00 89 1022.2
20260906055437 22 27 0.0 0.0 0.00 0.00 0.00 89 1022.2
20260906054932 22 27 1.6 3.2 0.00 0.00 0.00 90 1022.1
20260906054426 22 321 0.0 1.6 0.00 0.00 0.00 90 1022.1
20260906053922 22 3 0.0 0.0 0.00 0.00 0.00 90 1022.1
20260906053418 22 12 3.2 3.2 0.00 0.00 0.00 91 1022.1
20260906052914 22 7 1.6 3.2 0.00 0.00 0.00 91 1021.9
20260906052410 22 5 3.2 4.8 0.00 0.00 0.00 91 1021.8
20260906051907 22 12 0.0 0.0 0.00 0.00 0.00 91 1021.8
20260906051406 22 12 0.0 1.6 0.00 0.00 0.00 91 1021.9
20260906050903 22 11 4.8 4.8 0.00 0.00 0.00 92 1021.8
20260906050357 22 195 0.0 0.0 0.00 0.00 0.00 92 1021.6
20260906045856 22 13 3.2 3.2 0.00 0.00 0.00 92 1021.6
20260906045355 22 22 1.6 1.6 0.00 0.00 0.00 92 1021.9
20260906044852 22 22 0.0 0.0 0.00 0.00 0.00 92 1021.8
20260906044352 22 7 0.0 0.0 0.00 0.00 0.00 92 1021.7
20260906043847 22 22 4.8 4.8 0.00 0.00 0.00 92 1021.4
20260906043343 22 354 0.0 1.6 0.00 0.00 0.00 92 1021.6
20260906042838 22 12 4.8 8.0 0.00 0.00 0.00 92 1021.6
20260906042337 22 303 1.6 3.2 0.00 0.00 0.00 92 1021.7
20260906041833 22 12 1.6 1.6 0.00 0.00 0.00 92 1021.4
20260906041328 22 47 3.2 3.2 0.00 0.00 0.00 92 1021.3
20260906040823 22 14 3.2 3.2 0.00 0.00 0.00 91 1021.3
20260906040318 22 350 1.6 1.6 0.00 0.00 0.00 91 1021.3
20260906035813 22 19 3.2 4.8 0.00 0.00 0.00 91 1021.4
20260906035309 22 359 0.0 0.0 0.00 0.00 0.00 91 1021.1
20260906034804 22 11 1.6 1.6 0.00 0.00 0.00 91 1021.2
20260906034304 22 343 0.0 1.6 0.00 0.00 0.00 91 1021.4
20260906033800 22 266 4.8 8.0 0.00 0.00 0.00 90 1021.2
20260906033259 22 299 1.6 1.6 0.00 0.00 0.00 90 1021.2
20260906032755 22 324 1.6 3.2 0.00 0.00 0.00 90 1021.3
20260906032250 22 6 0.0 1.6 0.00 0.00 0.00 90 1021.3
20260906031745 22 249 3.2 4.8 0.00 0.00 0.00 90 1021.3
20260906031241 22 342 8.0 9.7 0.00 0.00 0.00 90 1021.3
20260906030740 22 8 3.2 3.2 0.00 0.00 0.00 90 1021.2
20260906030236 22 12 6.4 8.0 0.00 0.00 0.00 90 1021.3
20260906025735 22 13 1.6 3.2 0.00 0.00 0.00 90 1021.3
20260906025229 22 357 3.2 4.8 0.00 0.00 0.00 89 1021.0
20260906024728 22 5 6.4 8.0 0.00 0.00 0.00 89 1021.3
20260906024228 22 347 4.8 4.8 0.00 0.00 0.00 89 1021.3
20260906023724 22 297 4.8 4.8 0.00 0.00 0.00 89 1021.2
20260906023219 22 26 8.0 12.9 0.00 0.00 0.00 89 1021.2
20260906022714 22 21 4.8 4.8 0.00 0.00 0.00 88 1021.2
20260906022210 22 16 1.6 1.6 0.00 0.00 0.00 88 1021.4
20260906021706 22 9 1.6 1.6 0.00 0.00 0.00 88 1021.3
20260906021204 22 30 3.2 3.2 0.00 0.00 0.00 88 1021.4
20260906020659 22 9 3.2 3.2 0.00 0.00 0.00 88 1021.3
20260906020154 22 28 4.8 8.0 0.00 0.00 0.00 88 1021.5
20260906015648 22 44 4.8 4.8 0.00 0.00 0.00 88 1021.5
20260906015147 22 27 1.6 1.6 0.00 0.00 0.00 87 1021.6
20260906014647 22 356 1.6 1.6 0.00 0.00 0.00 87 1021.4
20260906014143 22 12 3.2 3.2 0.00 0.00 0.00 87 1021.4
20260906013639 22 12 3.2 3.2 0.00 0.00 0.00 87 1021.6
20260906013134 22 3 1.6 1.6 0.00 0.00 0.00 88 1021.3
20260906012633 22 24 3.2 3.2 0.00 0.00 0.00 88 1021.4
20260906012128 22 31 8.0 9.7 0.00 0.00 0.00 88 1021.5
20260906011624 22 14 8.0 11.3 0.00 0.00 0.00 88 1021.4
20260906011119 22 357 1.6 1.6 0.00 0.00 0.00 88 1021.3
20260906010614 22 263 3.2 3.2 0.00 0.00 0.00 87 1021.1
20260906010110 22 249 3.2 3.2 0.00 0.00 0.00 87 1020.8
20260906005610 22 72 1.6 1.6 0.00 0.00 0.00 87 1020.6
20260906005109 22 47 6.4 8.0 0.00 0.00 0.00 88 1020.9
20260906004608 22 27 4.8 8.0 0.00 0.00 0.00 88 1020.7
20260906004103 22 215 4.8 4.8 0.00 0.00 0.00 89 1020.7
20260906003558 22 29 3.2 3.2 0.00 0.00 0.00 89 1020.5
20260906003055 22 33 3.2 4.8 0.00 0.00 0.00 89 1020.6
20260906002555 22 231 3.2 4.8 0.00 0.00 0.00 89 1020.7
20260906002049 22 3 1.6 3.2 0.00 0.00 0.00 89 1020.7
20260906001545 22 33 4.8 8.0 0.00 0.00 0.00 89 1020.8
20260906001039 22 15 4.8 8.0 0.00 0.00 0.00 89 1020.5
20260906000535 22 16 9.7 11.3 0.00 0.00 0.00 88 1020.6
20260906000030 22 35 9.7 12.9 0.00 0.00 0.00 88 1020.6
20260905235524 22 346 6.4 12.9 0.00 0.00 0.00 88 1020.5
20260905235019 22 232 3.2 4.8 0.00 0.00 0.00 88 1020.6
20260905234515 22 359 4.8 9.7 0.00 0.00 0.00 88 1020.9
20260905234009 22 34 4.8 8.0 0.00 0.00 0.00 88 1020.6
20260905233504 22 31 8.0 11.3 0.00 0.00 0.00 88 1020.7
20260905233003 22 23 3.2 3.2 0.00 0.00 0.00 87 1020.6
20260905232459 22 16 6.4 8.0 0.00 0.00 0.00 87 1020.6
20260905231954 22 8 1.6 1.6 0.00 0.00 0.00 88 1020.5
20260905231450 22 354 9.7 11.3 0.00 0.00 0.00 87 1020.6
20260905230946 22 8 8.0 12.9 0.00 0.00 0.00 88 1020.5
20260905230445 22 8 4.8 4.8 0.00 0.00 0.00 87 1020.3
20260905225943 22 34 9.7 12.9 0.00 0.00 0.00 87 1020.5
20260905225438 22 38 4.8 8.0 0.00 0.00 0.00 87 1020.3
20260905224933 22 17 1.6 1.6 0.00 0.00 0.00 88 1020.5
20260905224429 22 37 3.2 3.2 0.00 0.00 0.00 88 1020.4
20260905223928 23 11 3.2 8.0 0.00 0.00 0.00 88 1020.4
20260905223426 23 356 6.4 8.0 0.00 0.00 0.00 87 1020.6
20260905222921 23 26 3.2 4.8 0.00 0.00 0.00 88 1020.7
20260905222420 23 43 6.4 8.0 0.00 0.00 0.00 87 1020.3
20260905221916 23 14 8.0 11.3 0.00 0.00 0.00 87 1020.4
20260905221413 23 19 4.8 4.8 0.00 0.00 0.00 87 1020.2
20260905220909 23 242 1.6 1.6 0.00 0.00 0.00 86 1020.2
20260905220404 24 86 1.6 1.6 0.00 0.00 0.00 86 1020.3
20260905215903 24 30 11.3 12.9 0.00 0.00 0.00 85 1020.2
20260905215359 24 24 3.2 8.0 0.00 0.00 0.00 85 1020.1
20260905214855 24 5 1.6 1.6 0.00 0.00 0.00 85 1020.1
20260905214351 25 19 4.8 8.0 0.00 0.00 0.00 84 1020.0
20260905213845 25 230 1.6 3.2 0.00 0.00 0.00 84 1019.9
20260905213342 25 34 3.2 3.2 0.00 0.00 0.00 85 1020.1
20260905212842 25 345 6.4 9.7 0.00 0.00 0.00 84 1019.8
20260905212336 25 2 4.8 4.8 0.00 0.00 0.00 85 1019.9
20260905211836 25 15 1.6 1.6 0.00 0.00 0.00 85 1019.9
20260905211332 25 14 4.8 9.7 0.00 0.00 0.00 85 1020.1
20260905210828 25 12 1.6 3.2 0.00 0.00 0.00 85 1020.0
20260905210328 25 64 4.8 4.8 0.00 0.00 0.00 84 1020.0
20260905205827 25 232 6.4 8.0 0.00 0.00 0.00 83 1020.0
20260905205321 25 34 3.2 3.2 0.00 0.00 0.00 82 1019.9
20260905204821 25 3 6.4 8.0 0.00 0.00 0.00 82 1019.9
20260905204317 25 41 3.2 3.2 0.00 0.00 0.00 80 1019.9
20260905203815 25 9 1.6 1.6 0.00 0.00 0.00 82 1019.9
20260905203311 25 245 3.2 3.2 0.00 0.00 0.00 81 1019.9
20260905202801 25 114 3.2 3.2 0.00 0.00 0.00 83 1020.2
20260905202256 25 41 8.0 12.9 0.00 0.00 0.00 85 1019.9
20260905201752 25 7 12.9 17.7 0.00 0.00 0.00 84 1020.0
20260905201247 25 29 6.4 8.0 0.00 0.00 0.00 82 1020.1
20260905200742 25 299 4.8 4.8 0.00 0.00 0.00 81 1020.1
20260905200238 25 4 6.4 9.7 0.00 0.00 0.00 80 1020.1
20260905195735 26 21 6.4 11.3 0.00 0.00 0.00 79 1019.9
20260905195230 26 25 6.4 8.0 0.00 0.00 0.00 79 1020.1
20260905194726 26 38 9.7 11.3 0.00 0.00 0.00 77 1020.1
20260905194225 26 212 3.2 3.2 0.00 0.00 0.00 79 1020.1
20260905193719 26 10 3.2 3.2 0.00 0.00 0.00 78 1020.1
20260905193214 26 41 3.2 3.2 0.00 0.00 0.00 79 1020.2
20260905192710 26 305 3.2 4.8 0.00 0.00 0.00 79 1020.3
20260905192206 25 20 3.2 4.8 0.00 0.00 0.00 81 1020.3
20260905191706 26 249 3.2 4.8 0.00 0.00 0.00 80 1020.2
20260905191204 25 53 4.8 8.0 0.00 0.00 0.00 81 1020.2
20260905190703 25 7 8.0 11.3 0.00 0.00 0.00 81 1020.3
20260905190202 25 7 1.6 3.2 0.00 0.00 0.00 83 1020.1
20260905185701 25 39 8.0 9.7 0.00 0.00 0.00 82 1020.1
20260905185155 26 29 11.3 14.5 0.00 0.00 0.00 81 1020.4
20260905184655 25 249 4.8 8.0 0.00 0.00 0.00 84 1020.4
20260905184153 25 353 4.8 8.0 0.00 0.00 0.00 82 1020.3
20260905183648 25 316 11.3 14.5 0.00 0.00 0.00 82 1020.4
20260905183143 25 10 6.4 11.3 0.00 0.00 0.00 83 1020.1
20260905182643 25 27 9.7 11.3 0.00 0.00 0.00 82 1020.2
20260905182143 26 32 8.0 9.7 0.00 0.00 0.00 82 1020.5
20260905181638 25 46 8.0 9.7 0.00 0.00 0.00 85 1020.3
20260905181137 25 2 8.0 11.3 0.00 0.00 0.00 84 1020.2
20260905180632 26 19 6.4 8.0 0.00 0.00 0.00 82 1020.2
20260905180127 26 38 4.8 8.0 0.00 0.00 0.00 81 1020.1
20260905175626 26 20 8.0 9.7 0.00 0.00 0.00 81 1020.1
20260905175121 25 33 1.6 1.6 0.00 0.00 0.00 83 1020.0
20260905174611 25 14 8.0 9.7 0.00 0.00 0.00 83 1020.1
20260905174106 25 24 3.2 3.2 0.00 0.00 0.00 84 1020.0
20260905173603 25 3 3.2 3.2 0.00 0.00 0.00 83 1020.3
20260905173058 26 20 1.6 1.6 0.00 0.00 0.00 82 1020.0
20260905172556 26 12 4.8 8.0 0.00 0.00 0.00 82 1020.1
20260905172052 25 231 3.2 4.8 0.00 0.00 0.00 83 1020.0
20260905171548 26 37 3.2 4.8 0.00 0.00 0.00 81 1020.4
20260905171044 25 67 3.2 3.2 0.00 0.00 0.00 82 1020.5
20260905170541 25 6 3.2 4.8 0.00 0.00 0.00 85 1020.2
20260905170036 25 15 3.2 3.2 0.00 0.00 0.00 85 1020.4
20260905165530 25 300 3.2 3.2 0.00 0.00 0.00 86 1020.5
20260905165026 24 20 3.2 3.2 0.00 0.00 0.00 87 1020.4
20260905164520 25 39 1.6 1.6 0.00 0.00 0.00 86 1020.4
20260905164015 25 28 3.2 4.8 0.00 0.00 0.00 86 1020.6
20260905163511 25 22 6.4 8.0 0.00 0.00 0.00 86 1020.5
20260905163007 25 29 4.8 4.8 0.00 0.00 0.00 85 1020.6
20260905162502 25 31 3.2 3.2 0.00 0.00 0.00 85 1020.4
20260905161957 25 13 4.8 4.8 0.00 0.00 0.00 86 1020.3
20260905161456 24 30 4.8 8.0 0.00 0.00 0.00 87 1020.3
20260905160954 24 34 3.2 4.8 0.00 0.00 0.00 87 1020.2
20260905160448 25 9 8.0 9.7 0.00 0.00 0.00 85 1020.1
20260905155948 25 5 4.8 4.8 0.00 0.00 0.00 85 1019.9
20260905155443 25 247 3.2 4.8 0.00 0.00 0.00 84 1019.9
20260905154941 25 24 3.2 4.8 0.00 0.00 0.00 85 1019.9
20260905154437 25 14 1.6 1.6 0.00 0.00 0.00 87 1020.2
20260905153932 25 29 3.2 4.8 0.00 0.00 0.00 88 1020.0
20260905153428 24 18 0.0 1.6 0.00 0.00 0.00 88 1020.1
20260905152928 25 19 8.0 9.7 0.00 0.00 0.00 87 1019.8
20260905152428 25 16 4.8 4.8 0.00 0.00 0.00 88 1019.7
20260905151923 24 10 4.8 4.8 0.00 0.00 0.00 89 1019.8
20260905151419 24 32 6.4 9.7 0.00 0.00 0.00 89 1019.9
20260905150918 24 89 1.6 3.2 0.00 0.00 0.00 89 1019.7
20260905150419 24 12 8.0 9.7 0.00 0.00 0.00 89 1019.7
20260905145915 24 357 3.2 3.2 0.00 0.00 0.00 90 1019.6
20260905145410 24 14 12.9 16.1 0.00 0.00 0.00 89 1019.6
20260905144909 24 30 8.0 11.3 0.00 0.00 0.00 89 1019.6
20260905144405 24 17 1.6 3.2 0.00 0.00 0.00 90 1019.4
20260905143904 24 20 1.6 1.6 0.00 0.00 0.00 90 1019.5
20260905143358 24 39 6.4 9.7 0.00 0.00 0.00 89 1019.5
20260905142858 25 25 4.8 4.8 0.00 0.00 0.00 89 1019.5
20260905142356 25 27 3.2 3.2 0.00 0.00 0.00 89 1019.5
20260905141852 25 10 0.0 0.0 0.00 0.00 0.00 89 1019.4
20260905141347 25 28 4.8 4.8 0.00 0.00 0.00 90 1019.3
20260905140844 24 350 1.6 1.6 0.00 0.00 0.00 91 1019.4
20260905140344 24 43 3.2 4.8 0.00 0.00 0.00 91 1019.2
20260905135842 23 12 4.8 8.0 0.00 0.00 0.00 92 1019.2
20260905135338 23 30 1.6 1.6 0.00 0.00 0.00 93 1019.5
20260905134833 23 25 3.2 3.2 0.00 0.00 0.00 93 1019.3
20260905134331 23 355 4.8 8.0 0.00 0.00 0.00 93 1019.4
20260905133827 23 28 4.8 4.8 0.00 0.00 0.00 94 1019.5
20260905133322 23 12 6.4 12.9 0.00 0.00 0.00 94 1019.6
20260905132821 23 19 1.6 3.2 0.00 0.00 0.00 94 1019.6
20260905132317 23 20 3.2 4.8 0.00 0.00 0.00 95 1019.4
20260905131811 23 17 1.6 1.6 0.00 0.00 0.00 95 1019.3
20260905131307 23 26 1.6 1.6 0.00 0.00 0.00 96 1019.2
20260905130801 23 30 0.0 0.0 0.00 0.00 0.00 96 1018.9
20260905130300 23 41 3.2 8.0 0.00 0.00 0.00 96 1019.2
20260905125755 23 6 1.6 3.2 0.00 0.00 0.00 97 1018.9
20260905125250 23 4 1.6 1.6 0.00 0.00 0.00 97 1019.0
20260905124747 23 27 0.0 0.0 0.00 0.00 0.00 97 1018.9
20260905124243 22 27 0.0 0.0 0.00 0.00 0.00 97 1018.9
20260905123737 22 27 0.0 0.0 0.00 0.00 0.00 97 1018.7
20260905123235 22 27 1.6 3.2 0.00 0.00 0.00 97 1018.6
20260905122735 22 27 0.0 0.0 0.00 0.00 0.00 97 1018.5
20260905122229 22 26 0.0 0.0 0.00 0.00 0.00 98 1018.6
20260905121724 22 26 0.0 0.0 0.00 0.00 0.00 98 1018.2
20260905121220 22 29 0.0 0.0 0.00 0.00 0.00 98 1018.5
20260905120719 22 30 0.0 0.0 0.00 0.00 0.00 98 1018.5
20260905120214 22 39 0.0 0.0 0.00 0.00 0.00 98 1018.3
20260905115714 22 43 0.0 1.6 0.00 0.00 0.00 98 1018.1
20260905115209 22 332 0.0 0.0 0.00 0.00 0.00 98 1018.0
20260905114708 22 28 1.6 1.6 0.00 0.00 0.00 98 1018.1
20260905114206 22 27 0.0 0.0 0.00 0.00 0.00 98 1018.0
20260905113701 22 34 0.0 0.0 0.00 0.00 0.00 97 1017.8